This is the latest recevied weather packets stored in our database for station/object HB3YKO-13. If no packets are shown the sender has not sent any weather packets the latest 10 day(s).
| Time | Temp. | Humidity | Pressure | Rain* | Wind** | Luminosity | Snow |
|---|---|---|---|---|---|---|---|
| 1778168074 | -5.56° C | 49% | 0 hPa | 0 mm | - | - | - |
| 1778167774 | -5.56° C | 48% | 0 hPa | 0 mm | - | - | - |
| 1778167474 | -17.78° C | 47% | 0 hPa | 0 mm | - | - | - |
| 1778167174 | -17.78° C | 100% | 0 hPa | 0 mm | - | - | - |
| 1778166874 | -17.78° C | 100% | 0 hPa | 0 mm | - | - | - |
| 1778166574 | -17.78° C | 100% | 0 hPa | 0 mm | - | - | - |
| 1778166274 | -17.78° C | 100% | 0 hPa | 0 mm | - | - | - |
| 1778165974 | -17.78° C | 100% | 0 hPa | 0 mm | - | - | - |
| 1778165674 | -17.78° C | 100% | 0 hPa | 0 mm | - | - | - |
| 1778165374 | -17.78° C | 100% | 0 hPa | 0 mm | - | - | - |
| 1778165074 | -17.78° C | 100% | 0 hPa | 0 mm | - | - | - |
| 1778164774 | -17.78° C | 100% | 0 hPa | 0 mm | - | - | - |
| 1778164474 | -17.78° C | 100% | 0 hPa | 0 mm | - | - | - |
| 1778164174 | -17.78° C | 100% | 0 hPa | 0 mm | - | - | - |
| 1778163874 | -17.78° C | 100% | 0 hPa | 0 mm | - | - | - |
| 1778163574 | -17.78° C | 100% | 0 hPa | 0 mm | - | - | - |
| 1778163274 | -10.56° C | 44% | 0 hPa | 0 mm | - | - | - |
| 1778162974 | -10° C | 40% | 0 hPa | 0 mm | - | - | - |
| 1778162674 | -11.67° C | 44% | 0 hPa | 0 mm | - | - | - |
| 1778162374 | -10.56° C | 44% | 0 hPa | 0 mm | - | - | - |
| 1778162074 | -10.56° C | 44% | 0 hPa | 0 mm | - | - | - |
| 1778161774 | -10° C | 40% | 0 hPa | 0 mm | - | - | - |
| 1778161474 | -11.11° C | 46% | 0 hPa | 0 mm | - | - | - |
| 1778161174 | -11.11° C | 45% | 0 hPa | 0 mm | - | - | - |
| 1778160874 | -11.11° C | 46% | 0 hPa | 0 mm | - | - | - |
* Rain latest hour (hover to see other rain measurements)
** Current wind speed in m/s (hover to see current wind gust speed)